Milwaukee, WI

9:14 PM CST on November 16, 2019 (GMT -0600)
Gen Mitchell International

Weather History for KMKE - September, 2019

Change the Weather History Date:

Sunday, September 22, 2019

  Actual Average Record
Temperature  
Mean Temperature 70 °F 60 °F  
Max Temperature 73 °F 69 °F 95 °F (2017)
Min Temperature 66 °F 52 °F 32 °F (1974)
Degree Days  
Heating Degree Days 0 6  
Month to date heating degree days 8 67  
Since 1 July heating degree days 10 93  
Cooling Degree Days 5 1  
Month to date cooling degree days 95 62  
Year to date cooling degree days 701 627  
Growing Degree Days 20 (Base 50)    
Moisture  
Dew Point 67 °F    
Average Humidity 86    
Maximum Humidity 90    
Minimum Humidity 83    
Precipitation  
Precipitation 0.32 in 0.11 in 2.40 in (1988)
Month to date precipitation 5.60 2.34  
Year to date precipitation 34.01 26.52  
Snow  
Snow 0.00 in 0.00 in T in (1949)
Month to date snowfall 0.0 0.0  
Since 1 July snowfall 0.0 0.0  
Since 1 September snowfall 0.0 0.0  
Snow Depth 0.00 in    
Sea Level Pressure  
Sea Level Pressure 29.84 in    
Wind  
Wind Speed 10 mph ()    
Max Wind Speed 20 mph    
Max Gust Speed 29 mph    
Visibility 8.1 miles    
Events Rain    
T = Trace of Precipitation, MM = Missing Value Source: Averaged Metar Reports

Daily Weather History Graph

Daily Weather History Graph

Search for Another Location

Airport or City:

Astronomy

Sep. 22, 2019 Rise Set
Actual Time 6:38 AM CDT 6:49 PM CDT
Civil Twilight 6:10 AM CDT 7:17 PM CDT
Nautical Twilight 5:37 AM CDT 7:50 PM CDT
Astronomical Twilight 5:03 AM CDT 8:24 PM CDT
Moon No Moon Rise 2:53 PM CDT (9/22)
Length of Visible Light 13h 07m
Length of Day
12h 10m
Last Quarter, 44% of the Moon is Illuminated
Sep 22
Last Quarter
Sep 28
New
Oct 5
First Quarter
Oct 13
Full
Oct 21
Last Quarter

Hourly Weather History & Observations

Time (CDT) Temp. Dew Point Humidity Pressure Visibility Wind Dir Wind Speed Gust Speed Precip Events Conditions
12:27 AM 73.9 °F 69.1 °F 85% 29.93 in 10.0 mi SW 12.7 mph 23.0 mph N/A   Overcast
12:52 AM 73.9 °F 69.1 °F 85% 29.91 in 10.0 mi SW 13.8 mph - N/A   Mostly Cloudy
1:52 AM 73.9 °F 69.1 °F 85% 29.93 in 10.0 mi SW 12.7 mph - N/A   Overcast
2:52 AM 73.0 °F 69.1 °F 87% 29.91 in 10.0 mi SW 11.5 mph - N/A   Overcast
3:52 AM 73.0 °F 68.0 °F 84% 29.90 in 10.0 mi South 6.9 mph - N/A   Overcast
4:52 AM 72.0 °F 68.0 °F 87% 29.89 in 10.0 mi South 8.1 mph - N/A   Overcast
5:52 AM 72.0 °F 68.0 °F 87% 29.88 in 10.0 mi SSW 11.5 mph 18.4 mph N/A   Overcast
6:52 AM 72.0 °F 68.0 °F 87% 29.87 in 8.0 mi SSW 12.7 mph 19.6 mph 0.05 in Rain Light Rain
7:04 AM 72.0 °F 68.0 °F 87% 29.88 in 10.0 mi SSW 13.8 mph 23.0 mph 0.00 in Rain Light Rain
7:52 AM 72.0 °F 68.0 °F 87% 29.86 in 8.0 mi SSW 12.7 mph - 0.01 in Rain Light Rain
8:21 AM 73.0 °F 68.0 °F 84% 29.87 in 10.0 mi SSW 16.1 mph - 0.00 in Rain Light Rain
8:52 AM 73.0 °F 69.1 °F 87% 29.85 in 10.0 mi SSW 12.7 mph - 0.01 in Rain Light Rain
9:18 AM 73.0 °F 68.0 °F 84% 29.85 in 10.0 mi SSW 15.0 mph - 0.00 in Rain Light Rain
9:52 AM 72.0 °F 68.0 °F 87% 29.83 in 7.0 mi SSW 12.7 mph 20.7 mph 0.03 in Rain Light Rain
10:52 AM 73.0 °F 68.0 °F 84% 29.82 in 10.0 mi SSW 16.1 mph 26.5 mph 0.01 in   Overcast
11:52 AM 73.0 °F 68.0 °F 84% 29.82 in 4.0 mi SW 15.0 mph 26.5 mph 0.00 in Rain Light Rain
12:48 PM 71.6 °F 68.0 °F 88% 29.82 in 2.5 mi SW 10.4 mph - 0.11 in Rain Rain
12:52 PM 72.0 °F 68.0 °F 87% 29.81 in 4.0 mi SW 9.2 mph - 0.11 in Rain Light Rain
1:52 PM 72.0 °F 68.0 °F 87% 29.81 in 10.0 mi SW 10.4 mph - 0.02 in Rain Light Rain
2:13 PM 72.0 °F 68.0 °F 87% 29.82 in 10.0 mi WSW 9.2 mph - 0.00 in Rain Light Rain
2:32 PM 72.0 °F 68.0 °F 87% 29.82 in 1.8 mi WSW 8.1 mph - 0.03 in Rain Rain
2:34 PM 72.0 °F 68.0 °F 87% 29.82 in 4.0 mi WSW 8.1 mph - 0.03 in Rain Rain
2:52 PM 72.0 °F 68.0 °F 87% 29.81 in 10.0 mi WSW 6.9 mph - 0.03 in   Overcast
3:50 PM 71.6 °F 66.2 °F 83% 29.81 in 2.5 mi West 6.9 mph - 0.00 in Rain Light Rain
3:52 PM 71.1 °F 66.9 °F 87% 29.81 in 2.5 mi West 6.9 mph - 0.00 in Rain Light Rain
4:52 PM 71.1 °F 66.0 °F 84% 29.78 in 2.5 mi WSW 6.9 mph - 0.03 in Rain Light Rain
5:03 PM 71.1 °F 66.0 °F 84% 29.79 in 10.0 mi WSW 6.9 mph - 0.01 in Rain Light Rain
5:52 PM 70.0 °F 66.0 °F 87% 29.78 in 9.0 mi SW 8.1 mph - 0.01 in Rain Light Rain
6:52 PM 69.1 °F 64.9 °F 87% 29.78 in 10.0 mi West 4.6 mph - 0.00 in   Overcast
7:52 PM 69.1 °F 64.9 °F 87% 29.79 in 10.0 mi West 4.6 mph - 0.01 in   Mostly Cloudy
8:52 PM 68.0 °F 64.9 °F 90% 29.80 in 10.0 mi WNW 5.8 mph - N/A   Overcast
9:52 PM 66.9 °F 63.0 °F 87% 29.81 in 10.0 mi WNW 9.2 mph - N/A   Scattered Clouds
10:52 PM 66.0 °F 63.0 °F 90% 29.81 in 10.0 mi NW 4.6 mph - N/A   Scattered Clouds
11:52 PM 66.9 °F 63.0 °F 87% 29.83 in 10.0 mi West 4.6 mph - N/A   Overcast